Showing default

COSMOS 158, 2801

Orbit data source: Space-Track

COSMOS 158, 2801 is a payload satellite owned by OKB-10 (CIS) in LEO that was launched on Mon, 15 May 1967 UTC via a KOSMOS 11K65M launch vehicle from the Plesetsk Missile And Space Complex (PKMTR). Payload-class satellites include a variety of spacecraft equipped with specific instruments for various scientific and technological missions. These include communications satellites like Starlink; space stations such as the ISS; scientific satellites like the Hubble; Earth observation satellites from companies like Planet Labs, Umbra, and HawkEye 360; GPS; miniature CubeSats for education and research; and military/defense satellites.

Loading next visibility...
Identifier
2801, 1967-045A
Orbit
LEO
Last TLE update
21 hours ago
Origin
Manufacturer
OKB-10
Mission
Defense Navigation
Bus & Motor
KAUR-1 11F617, Unknown motor
Mass
800 kg wet, 800 kg dry
Launch date (UTC)
1967-05-15 (58 years ago)
Launch vehicle
KOSMOS 11K65M
Launch site
Plesetsk Missile And Space Complex (PKMTR)
Object type
Payload
Rocket body
Debris
Shape & HBR
Cyl + 1 Rod, 17 m
Radar Cross Section
9.978 m², Large (>1 m²)

Expand to show TLE details & history

TLE from 21 hours ago
0 COSMOS 158
1 02801U 67045A   25128.33483832  .00000080  00000-0  35387-4 0  9993
2 02801  74.0393  89.2430 0056347  35.3814 325.1056 14.36883908 38276
Epoch: 2025-05-08T08:02Z
Definitive object data (Epoch: 2025-05-08T08:02:10.03Z)
Latitude
-0.0001°
Longitude
102.29436°
Altitude
738.464 km
Speed
7.503 km/s
True Right ascension
05h 56m 58s
True Declination
0° 00' 00"
Sunlit
Object was in daylight at TLE epoch
Visualization TLE readout
Latitude
-36.6903°
Longitude
-67.07979°
Altitude
822.532 km
Speed
7.42 km/s
Apparent Right ascension
21h 35m 00s
Apparent Declination
-50° 05' 43"
Sunlit
Object is in full shadow
Visualization observer readout
Local Sidereal Time
13:14:30
Azimuth
123.82° SE
Elevation
-50.834°
Doppler factor
1
Orbital elements
Apogee altitude
806.693 km
Perigee altitude
726.178 km
Semi-major axis
7,144.572 km
Eccentricity
0.0056347
Inclination
74.0393°
RAAN
89.243°
Arg. of periapsis
35.3814°
True anomaly
324.73408°
Mean anomaly
325.1056°
Eccentric anomaly
324.92006°
Mean motion
3.59401 °/min
BSTAR
0.000035387
Orbital period
100.17 mins
Loading maneuver chart data...
Loading SW <> Apogee altitude chart data...
Loading historical data...
Loading historical data...
Loading historical data...
Loading historical data...
Loading historical data...
Loading historical data...
Loading historical data...
Other satellites on launch #45 in the year 1967 (1967-05-15 UTC)

COSMOS 158 Visibility forecast

Observer location: undefined°, undefined°

Span
Click to sort rows by Start time (UTC) header in descending order
Start Az.
Max El. time (UTC)
Max El. Az.
Max El.
End time (UTC)
End Az.
9 mins2025-05-09 07:58:53.221Z0.059° NNE2025-05-09 08:02:53.221Z59.168° ENE31.553°2025-05-09 08:07:53.221Z132.5° SE
7 mins2025-05-09 09:41:53.221Z305.68° NW2025-05-09 09:44:53.221Z262.302° W22.955°2025-05-09 09:48:53.221Z209.836° SW
8 mins2025-05-09 22:35:53.221Z207.14° SW2025-05-09 22:39:53.221Z302.9° NW43.434°2025-05-09 22:43:53.221Z13.268° NNE
|